FFT5564 KMIA-KCHS

Flight info

Callsign FFT5564
Flight time 1h 15m
Altitude 31000
Route ALTNN2 DUCEN Q87 VIYAP SAV BAGGY3
Aircraft A320/M-SDE3FGHIRWY/LB1

Departure

Time 2026-04-19 03:38
Airport Miami International Airport (KMIA)

Arrival

Time 2026-04-19 04:53
Airport Charleston International Airport (KCHS)
Time Latitude Longitude Altitude Speed Heading
2026-04-19 03:18 25.79343 -80.28074 22 ft 0 kts 169°
2026-04-19 03:28 25.79347 -80.28075 23 ft 2 kts 175°
2026-04-19 03:28 25.79358 -80.28073 23 ft 3 kts 182°
2026-04-19 03:28 25.79378 -80.28072 23 ft 3 kts 185°
2026-04-19 03:28 25.79398 -80.28069 23 ft 3 kts 200°
2026-04-19 03:29 25.79414 -80.28060 25 ft 2 kts 237°
2026-04-19 03:29 25.79419 -80.28051 21 ft 1 kts 244°
2026-04-19 03:29 25.79419 -80.28050 21 ft 0 kts 244°
2026-04-19 03:31 25.79417 -80.28054 21 ft 2 kts 244°
2026-04-19 03:31 25.79411 -80.28069 23 ft 3 kts 244°
2026-04-19 03:32 25.79392 -80.28111 24 ft 9 kts 244°
2026-04-19 03:32 25.79366 -80.28194 20 ft 12 kts 262°
2026-04-19 03:32 25.79334 -80.28276 20 ft 11 kts 224°
2026-04-19 03:32 25.79281 -80.28330 20 ft 9 kts 222°
2026-04-19 03:33 25.79236 -80.28374 21 ft 9 kts 221°
2026-04-19 03:33 25.79173 -80.28408 19 ft 11 kts 199°
2026-04-19 03:33 25.79133 -80.28466 17 ft 7 kts 312°
2026-04-19 03:33 25.79182 -80.28521 17 ft 13 kts 306°
2026-04-19 03:34 25.79234 -80.28625 16 ft 18 kts 298°
2026-04-19 03:34 25.79301 -80.28755 14 ft 19 kts 300°
2026-04-19 03:34 25.79362 -80.28872 15 ft 16 kts 299°
2026-04-19 03:34 25.79425 -80.28998 16 ft 23 kts 299°
2026-04-19 03:35 25.79511 -80.29165 18 ft 24 kts 300°
2026-04-19 03:35 25.79590 -80.29317 19 ft 21 kts 298°
2026-04-19 03:35 25.79662 -80.29458 17 ft 20 kts 298°
2026-04-19 03:35 25.79728 -80.29589 16 ft 19 kts 300°
2026-04-19 03:36 25.79792 -80.29715 13 ft 19 kts 299°
2026-04-19 03:36 25.79854 -80.29834 13 ft 17 kts 300°
2026-04-19 03:36 25.79906 -80.29939 13 ft 15 kts 298°
2026-04-19 03:36 25.79954 -80.30034 13 ft 13 kts 299°
2026-04-19 03:37 25.79995 -80.30108 15 ft 10 kts 310°
2026-04-19 03:37 25.80049 -80.30118 16 ft 7 kts 20°
2026-04-19 03:37 25.80071 -80.30058 14 ft 11 kts 86°
2026-04-19 03:37 25.80080 -80.29931 13 ft 28 kts 86°
2026-04-19 03:38 25.80098 -80.29444 17 ft 95 kts 87°
2026-04-19 03:38 25.80139 -80.28507 19 ft 146 kts 87°
2026-04-19 03:38 25.80198 -80.27262 315 ft 164 kts 87°
2026-04-19 03:38 25.80266 -80.26003 1028 ft 163 kts 86°
2026-04-19 03:39 25.80341 -80.24746 1717 ft 164 kts 85°
2026-04-19 03:39 25.80435 -80.23426 2090 ft 183 kts 86°
2026-04-19 03:39 25.80517 -80.21915 2354 ft 206 kts 87°
2026-04-19 03:39 25.80592 -80.20230 2688 ft 230 kts 88°
2026-04-19 03:40 25.80653 -80.18378 3203 ft 249 kts 86°
2026-04-19 03:40 25.81233 -80.16551 3872 ft 259 kts 49°
2026-04-19 03:40 25.82747 -80.15477 4610 ft 266 kts 13°
2026-04-19 03:40 25.84595 -80.15351 5446 ft 269 kts 358°
2026-04-19 03:41 25.86464 -80.15470 6329 ft 271 kts 355°
2026-04-19 03:41 25.88361 -80.15596 7105 ft 275 kts 355°
2026-04-19 03:41 25.90263 -80.15990 7843 ft 281 kts 342°
2026-04-19 03:41 25.92124 -80.16697 8581 ft 286 kts 341°
2026-04-19 03:42 25.94038 -80.17388 9289 ft 292 kts 342°
2026-04-19 03:42 25.96001 -80.18068 9991 ft 298 kts 342°
2026-04-19 03:42 25.98029 -80.18751 10374 ft 315 kts 345°
2026-04-19 03:42 26.00267 -80.19181 10542 ft 338 kts 355°
2026-04-19 03:43 26.02683 -80.19413 10738 ft 357 kts 355°
2026-04-19 03:43 26.02892 -80.19433 10771 ft 358 kts 355°
2026-04-19 03:43 26.03565 -80.19499 10902 ft 360 kts 354°
2026-04-19 03:43 26.06074 -80.19749 11469 ft 365 kts 354°
2026-04-19 03:44 26.08622 -80.20012 12125 ft 367 kts 354°
2026-04-19 03:44 26.11168 -80.20278 12777 ft 370 kts 354°
2026-04-19 03:44 26.13737 -80.20549 13438 ft 372 kts 354°
2026-04-19 03:44 26.16325 -80.20819 14063 ft 374 kts 354°
2026-04-19 03:45 26.18917 -80.21086 14603 ft 377 kts 354°
2026-04-19 03:45 26.21586 -80.21351 15150 ft 380 kts 354°
2026-04-19 03:45 26.24222 -80.21594 15665 ft 383 kts 355°
2026-04-19 03:45 26.26895 -80.21831 16195 ft 386 kts 355°
2026-04-19 03:46 26.29572 -80.22063 16714 ft 389 kts 355°
2026-04-19 03:46 26.32287 -80.22297 17223 ft 392 kts 355°
2026-04-19 03:46 26.35014 -80.22537 17725 ft 394 kts 355°
2026-04-19 03:46 26.37756 -80.22780 18225 ft 397 kts 355°
2026-04-19 03:47 26.40514 -80.23038 18666 ft 400 kts 354°
2026-04-19 03:47 26.42369 -80.23223 18952 ft 402 kts 354°
2026-04-19 03:47 26.46093 -80.23615 19540 ft 404 kts 353°
2026-04-19 03:47 26.47996 -80.23820 19841 ft 406 kts 353°
2026-04-19 03:48 26.50817 -80.24123 20297 ft 408 kts 353°
2026-04-19 03:48 26.53642 -80.24422 20740 ft 409 kts 353°
2026-04-19 03:48 26.56490 -80.24721 21176 ft 411 kts 353°
2026-04-19 03:48 26.59327 -80.25095 21605 ft 413 kts 351°
2026-04-19 03:49 26.62189 -80.25556 22032 ft 415 kts 349°
2026-04-19 03:49 26.65039 -80.26062 22445 ft 417 kts 349°
2026-04-19 03:49 26.67907 -80.26581 22867 ft 419 kts 349°
2026-04-19 03:49 26.70771 -80.27207 23279 ft 419 kts 342°
2026-04-19 03:50 26.73518 -80.28276 23676 ft 420 kts 338°
2026-04-19 03:50 26.76302 -80.29454 24023 ft 422 kts 338°
2026-04-19 03:50 26.79056 -80.30608 24359 ft 423 kts 338°
2026-04-19 03:50 26.81813 -80.31758 24698 ft 424 kts 338°
2026-04-19 03:51 26.84583 -80.32914 25031 ft 426 kts 338°
2026-04-19 03:51 26.87353 -80.34069 25368 ft 427 kts 338°
2026-04-19 03:51 26.90148 -80.35236 25705 ft 428 kts 338°
2026-04-19 03:51 26.92948 -80.36406 26044 ft 430 kts 338°
2026-04-19 03:52 26.95757 -80.37577 26375 ft 431 kts 338°
2026-04-19 03:52 26.98573 -80.38728 26712 ft 432 kts 338°
2026-04-19 03:52 27.01414 -80.39867 27044 ft 434 kts 339°
2026-04-19 03:52 27.04265 -80.41000 27374 ft 435 kts 339°
2026-04-19 03:53 27.07118 -80.42138 27694 ft 436 kts 339°
2026-04-19 03:53 27.09978 -80.43289 27993 ft 438 kts 338°
2026-04-19 03:53 27.12836 -80.44495 28293 ft 439 kts 337°
2026-04-19 03:53 27.15684 -80.45751 28591 ft 440 kts 336°
2026-04-19 03:54 27.18524 -80.47034 28887 ft 441 kts 336°
2026-04-19 03:54 27.21373 -80.48328 29175 ft 443 kts 336°
2026-04-19 03:54 27.24278 -80.49640 29506 ft 443 kts 336°
2026-04-19 03:54 27.27135 -80.50919 29945 ft 441 kts 336°
2026-04-19 03:55 27.29987 -80.52183 30348 ft 439 kts 336°
2026-04-19 03:55 27.32815 -80.53429 30720 ft 436 kts 336°
2026-04-19 03:55 27.35641 -80.54672 31010 ft 434 kts 336°
2026-04-19 03:56 27.41274 -80.57042 31091 ft 430 kts 338°
2026-04-19 03:56 27.46917 -80.59241 31092 ft 430 kts 338°
2026-04-19 03:57 27.52570 -80.61432 31091 ft 430 kts 338°
2026-04-19 03:57 27.58209 -80.63660 31089 ft 430 kts 338°
2026-04-19 03:58 27.63844 -80.65905 31092 ft 430 kts 338°
2026-04-19 03:58 27.69489 -80.68161 31087 ft 429 kts 338°
2026-04-19 03:59 27.75124 -80.70414 31081 ft 430 kts 338°
2026-04-19 03:59 27.80754 -80.72671 31080 ft 430 kts 337°
2026-04-19 04:00 27.86397 -80.74937 31082 ft 430 kts 337°
2026-04-19 04:00 27.92037 -80.77205 31087 ft 430 kts 337°
2026-04-19 04:01 27.97684 -80.79467 31089 ft 430 kts 337°
2026-04-19 04:01 28.06179 -80.82876 31091 ft 430 kts 337°
2026-04-19 04:02 28.11825 -80.85148 31098 ft 431 kts 337°
2026-04-19 04:02 28.17467 -80.87420 31093 ft 431 kts 337°
2026-04-19 04:03 28.23135 -80.89703 31077 ft 432 kts 337°
2026-04-19 04:03 28.28790 -80.91983 31083 ft 432 kts 337°
2026-04-19 04:04 28.34451 -80.94273 31091 ft 432 kts 337°
2026-04-19 04:04 28.40106 -80.96561 31104 ft 432 kts 337°
2026-04-19 04:05 28.45777 -80.98855 31107 ft 432 kts 337°
2026-04-19 04:05 28.51433 -81.01151 31108 ft 432 kts 336°
2026-04-19 04:06 28.57140 -81.03468 31101 ft 432 kts 336°
2026-04-19 04:06 28.62795 -81.05771 31097 ft 432 kts 336°
2026-04-19 04:07 28.68449 -81.08077 31100 ft 432 kts 336°
2026-04-19 04:07 28.74099 -81.10375 31103 ft 432 kts 336°
2026-04-19 04:08 28.79760 -81.12684 31102 ft 432 kts 336°
2026-04-19 04:08 28.85409 -81.14990 31101 ft 431 kts 336°
2026-04-19 04:09 28.91060 -81.17302 31097 ft 431 kts 336°
2026-04-19 04:09 28.96709 -81.19616 31102 ft 431 kts 336°
2026-04-19 04:10 29.02392 -81.21939 31099 ft 431 kts 336°
2026-04-19 04:10 29.08042 -81.24249 31099 ft 431 kts 336°
2026-04-19 04:11 29.13691 -81.26571 31096 ft 431 kts 336°
2026-04-19 04:11 29.19333 -81.28894 31094 ft 431 kts 336°
2026-04-19 04:12 29.24978 -81.31217 31089 ft 431 kts 336°
2026-04-19 04:12 29.30907 -81.32517 31080 ft 441 kts 352°
2026-04-19 04:13 29.37044 -81.32872 31079 ft 441 kts 352°
2026-04-19 04:13 29.43177 -81.33222 31081 ft 442 kts 352°
2026-04-19 04:14 29.49317 -81.33586 31083 ft 442 kts 352°
2026-04-19 04:14 29.55460 -81.33949 31085 ft 442 kts 352°
2026-04-19 04:15 29.61612 -81.34302 31083 ft 443 kts 352°
2026-04-19 04:15 29.67760 -81.34663 31082 ft 443 kts 352°
2026-04-19 04:16 29.73918 -81.35037 31088 ft 443 kts 352°
2026-04-19 04:16 29.79068 -81.35350 31091 ft 443 kts 352°
2026-04-19 04:17 29.86239 -81.35772 31093 ft 444 kts 352°
2026-04-19 04:17 29.91394 -81.36077 31097 ft 443 kts 351°
2026-04-19 04:18 29.97562 -81.36443 31097 ft 443 kts 351°
2026-04-19 04:18 30.03711 -81.36810 31093 ft 443 kts 351°
2026-04-19 04:19 30.09871 -81.37182 31091 ft 443 kts 351°
2026-04-19 04:19 30.16024 -81.37553 31082 ft 443 kts 351°
2026-04-19 04:20 30.22183 -81.37922 31084 ft 443 kts 351°
2026-04-19 04:20 30.28327 -81.38284 31077 ft 443 kts 351°
2026-04-19 04:21 30.34479 -81.38649 31073 ft 443 kts 351°
2026-04-19 04:21 30.40630 -81.39021 31079 ft 442 kts 351°
2026-04-19 04:22 30.46811 -81.39395 31077 ft 442 kts 351°
2026-04-19 04:22 30.52926 -81.39734 31079 ft 442 kts 352°
2026-04-19 04:23 30.59108 -81.40048 31081 ft 442 kts 352°
2026-04-19 04:23 30.65256 -81.40363 31088 ft 442 kts 352°
2026-04-19 04:24 30.71414 -81.40682 31081 ft 442 kts 352°
2026-04-19 04:24 30.77548 -81.41014 31079 ft 442 kts 352°
2026-04-19 04:25 30.83684 -81.41343 31078 ft 441 kts 352°
2026-04-19 04:25 30.89818 -81.41668 31058 ft 441 kts 352°
2026-04-19 04:26 30.95957 -81.41989 31057 ft 441 kts 352°
2026-04-19 04:26 31.02084 -81.42315 31053 ft 441 kts 352°
2026-04-19 04:27 31.08205 -81.42652 31049 ft 441 kts 352°
2026-04-19 04:27 31.14342 -81.42973 31048 ft 441 kts 352°
2026-04-19 04:28 31.20471 -81.43291 31050 ft 441 kts 352°
2026-04-19 04:28 31.26628 -81.43167 31056 ft 450 kts
2026-04-19 04:29 31.32777 -81.41574 31054 ft 453 kts
2026-04-19 04:29 31.38974 -81.39939 31052 ft 453 kts
2026-04-19 04:30 31.45119 -81.38333 31048 ft 452 kts
2026-04-19 04:30 31.51224 -81.36734 31046 ft 452 kts
2026-04-19 04:31 31.57393 -81.35103 31042 ft 452 kts
2026-04-19 04:31 31.63516 -81.33488 31040 ft 451 kts
2026-04-19 04:32 31.69647 -81.31872 31040 ft 451 kts
2026-04-19 04:32 31.75817 -81.30239 31040 ft 451 kts
2026-04-19 04:33 31.81936 -81.28613 31031 ft 451 kts
2026-04-19 04:33 31.88044 -81.26995 30911 ft 448 kts
2026-04-19 04:34 31.91082 -81.26188 30148 ft 448 kts
2026-04-19 04:34 31.94134 -81.25379 29106 ft 452 kts
2026-04-19 04:34 31.97216 -81.24561 28072 ft 455 kts
2026-04-19 04:34 32.00302 -81.23739 27324 ft 453 kts
2026-04-19 04:35 32.03359 -81.22923 26646 ft 449 kts
2026-04-19 04:35 32.06400 -81.22111 26024 ft 445 kts
2026-04-19 04:35 32.09398 -81.21265 25409 ft 443 kts 12°
2026-04-19 04:35 32.12275 -81.19933 24802 ft 446 kts 22°
2026-04-19 04:36 32.14918 -81.18010 24202 ft 448 kts 33°
2026-04-19 04:36 32.17245 -81.15548 23611 ft 451 kts 43°
2026-04-19 04:36 32.19201 -81.12660 22958 ft 450 kts 50°
2026-04-19 04:36 32.21079 -81.09672 22340 ft 446 kts 50°
2026-04-19 04:37 32.22919 -81.06747 21769 ft 441 kts 50°
2026-04-19 04:37 32.24721 -81.03887 21217 ft 436 kts 50°
2026-04-19 04:37 32.26547 -81.00992 20665 ft 432 kts 50°
2026-04-19 04:37 32.28334 -80.98159 20125 ft 428 kts 50°
2026-04-19 04:38 32.30105 -80.95352 19607 ft 424 kts 50°
2026-04-19 04:38 32.31854 -80.92572 19100 ft 420 kts 51°
2026-04-19 04:38 32.33586 -80.89820 18592 ft 416 kts 51°
2026-04-19 04:38 32.35309 -80.87077 18064 ft 412 kts 51°
2026-04-19 04:39 32.37003 -80.84368 17513 ft 408 kts 51°
2026-04-19 04:39 32.38683 -80.81681 16994 ft 405 kts 51°
2026-04-19 04:39 32.40348 -80.79016 16474 ft 401 kts 51°
2026-04-19 04:39 32.41999 -80.76376 16003 ft 397 kts 51°
2026-04-19 04:40 32.43630 -80.73766 15518 ft 394 kts 51°
2026-04-19 04:40 32.45258 -80.71162 15042 ft 391 kts 52°
2026-04-19 04:40 32.46866 -80.68590 14578 ft 387 kts 52°
2026-04-19 04:40 32.48463 -80.66032 14124 ft 384 kts 52°
2026-04-19 04:41 32.50036 -80.63506 13651 ft 381 kts 52°
2026-04-19 04:41 32.51599 -80.60990 13126 ft 377 kts 52°
2026-04-19 04:41 32.53148 -80.58497 12638 ft 374 kts 52°
2026-04-19 04:41 32.54684 -80.56033 12116 ft 371 kts 52°
2026-04-19 04:42 32.56215 -80.53576 11604 ft 367 kts 52°
2026-04-19 04:42 32.57721 -80.51156 11154 ft 365 kts 52°
2026-04-19 04:42 32.59218 -80.48745 11012 ft 355 kts 52°
2026-04-19 04:42 32.60633 -80.46455 11023 ft 336 kts 52°
2026-04-19 04:43 32.61982 -80.44280 10885 ft 315 kts 52°
2026-04-19 04:43 32.63284 -80.42265 10472 ft 304 kts 50°
2026-04-19 04:43 32.64577 -80.40327 10040 ft 295 kts 50°
2026-04-19 04:43 32.65855 -80.38436 9876 ft 294 kts 50°
2026-04-19 04:44 32.67130 -80.36551 9538 ft 291 kts 50°
2026-04-19 04:44 32.68531 -80.34841 8865 ft 287 kts 37°
2026-04-19 04:44 32.70205 -80.33598 8226 ft 283 kts 23°
2026-04-19 04:44 32.72024 -80.32692 7637 ft 284 kts 21°
2026-04-19 04:45 32.73859 -80.31775 7269 ft 283 kts 21°
2026-04-19 04:45 32.75665 -80.30862 6890 ft 281 kts 21°
2026-04-19 04:45 32.77460 -80.29952 6510 ft 280 kts 21°
2026-04-19 04:45 32.79234 -80.29052 6124 ft 280 kts 22°
2026-04-19 04:46 32.81037 -80.28136 5733 ft 278 kts 21°
2026-04-19 04:46 32.82817 -80.27235 5356 ft 277 kts 21°
2026-04-19 04:46 32.84590 -80.26341 4992 ft 276 kts 21°
2026-04-19 04:46 32.86352 -80.25454 4622 ft 275 kts 21°
2026-04-19 04:47 32.88108 -80.24571 4242 ft 274 kts 21°
2026-04-19 04:47 32.89847 -80.23697 3985 ft 267 kts 21°
2026-04-19 04:47 32.91539 -80.22853 3731 ft 260 kts 21°
2026-04-19 04:47 32.93195 -80.22056 3474 ft 254 kts 20°
2026-04-19 04:48 32.94277 -80.21542 3325 ft 250 kts 20°
2026-04-19 04:48 32.95874 -80.20786 3082 ft 245 kts 20°
2026-04-19 04:48 32.97464 -80.20033 2833 ft 240 kts 21°
2026-04-19 04:48 32.98995 -80.19304 2591 ft 236 kts 21°
2026-04-19 04:49 32.99448 -80.19088 2512 ft 235 kts 20°
2026-04-19 04:49 33.00896 -80.18372 2274 ft 230 kts 24°
2026-04-19 04:49 33.02161 -80.17297 2023 ft 222 kts 53°
2026-04-19 04:49 33.02740 -80.15669 1781 ft 211 kts 88°
2026-04-19 04:50 33.02537 -80.14017 1625 ft 197 kts 119°
2026-04-19 04:50 33.01760 -80.12785 1621 ft 179 kts 146°
2026-04-19 04:50 33.00752 -80.11982 1612 ft 170 kts 152°
2026-04-19 04:50 32.99767 -80.11236 1604 ft 167 kts 152°
2026-04-19 04:51 32.98787 -80.10493 1600 ft 167 kts 152°
2026-04-19 04:51 32.97830 -80.09765 1489 ft 157 kts 152°
2026-04-19 04:51 32.96961 -80.09104 1332 ft 144 kts 153°
2026-04-19 04:51 32.96135 -80.08477 1154 ft 139 kts 152°
2026-04-19 04:52 32.95322 -80.07862 982 ft 137 kts 152°
2026-04-19 04:52 32.94525 -80.07249 805 ft 137 kts 150°
2026-04-19 04:52 32.93717 -80.06632 634 ft 137 kts 150°
2026-04-19 04:52 32.92914 -80.06020 457 ft 137 kts 150°
2026-04-19 04:53 32.92113 -80.05415 271 ft 136 kts 151°
2026-04-19 04:53 32.91314 -80.04815 99 ft 135 kts 151°
2026-04-19 04:53 32.90554 -80.04246 41 ft 106 kts 148°
2026-04-19 04:53 32.90187 -80.03967 41 ft 20 kts 147°
2026-04-19 04:54 32.90148 -80.03936 41 ft 9 kts 147°
2026-04-19 04:54 32.90092 -80.03893 41 ft 10 kts 147°
2026-04-19 04:54 32.90002 -80.03825 40 ft 20 kts 148°
2026-04-19 04:54 32.89877 -80.03735 40 ft 22 kts 148°
2026-04-19 04:55 32.89747 -80.03634 39 ft 23 kts 147°
2026-04-19 04:55 32.89595 -80.03587 39 ft 23 kts 182°
2026-04-19 04:55 32.89439 -80.03588 41 ft 22 kts 181°
2026-04-19 04:55 32.89282 -80.03593 41 ft 23 kts 182°
2026-04-19 04:56 32.89122 -80.03598 41 ft 23 kts 181°
2026-04-19 04:56 32.88960 -80.03609 41 ft 22 kts 188°
2026-04-19 04:56 32.88814 -80.03634 41 ft 21 kts 187°
2026-04-19 04:56 32.88690 -80.03655 41 ft 17 kts 187°
2026-04-19 04:57 32.88609 -80.03668 41 ft 10 kts 187°
2026-04-19 04:57 32.88561 -80.03655 41 ft 6 kts 164°
2026-04-19 04:57 32.88540 -80.03646 41 ft 2 kts 162°
2026-04-19 04:57 32.88537 -80.03644 41 ft 0 kts 160°